Time,TemperatureF,DewpointF,PressureIn,WindDirection,WindDirectionDegrees,WindSpeedMPH,WindSpeedGustMPH,Humidity,HourlyPrecipIn,Conditions,Clouds,dailyrainin,SoftwareType,DateUTC
2013-01-19 00:04:00,51.6,34.5,30.22,South,180,0.0,0.0,52,0.00,,,0.00,WUHU216HW,2013-01-19 06:04:00,
2013-01-19 00:09:00,51.4,34.3,30.22,SSE,158,8.7,9.1,52,0.00,,,0.00,WUHU216HW,2013-01-19 06:09:00,
2013-01-19 00:14:00,51.4,34.3,30.22,South,180,0.0,9.1,52,0.00,,,0.00,WUHU216HW,2013-01-19 06:14:00,
2013-01-19 00:19:00,51.4,34.3,30.22,South,180,0.0,8.7,52,0.00,,,0.00,WUHU216HW,2013-01-19 06:19:00,
2013-01-19 00:24:00,51.2,34.6,30.22,SSE,158,0.0,6.9,53,0.00,,,0.00,WUHU216HW,2013-01-19 06:24:00,
2013-01-19 00:29:00,51.2,34.6,30.21,SSW,203,2.2,6.9,53,0.00,,,0.00,WUHU216HW,2013-01-19 06:29:00,
2013-01-19 00:34:00,51.2,34.6,30.21,SSW,203,8.2,8.2,53,0.00,,,0.00,WUHU216HW,2013-01-19 06:34:00,
2013-01-19 00:39:00,51.0,34.5,30.21,SSE,158,0.0,8.2,53,0.00,,,0.00,WUHU216HW,2013-01-19 06:39:00,
2013-01-19 00:45:00,51.2,34.6,30.21,SSE,158,4.2,5.3,53,0.00,,,0.00,WUHU216HW,2013-01-19 06:45:00,
2013-01-19 00:50:00,51.0,34.5,30.21,SSW,203,3.3,4.2,53,0.00,,,0.00,WUHU216HW,2013-01-19 06:50:00,
2013-01-19 00:55:00,50.9,34.3,30.21,SSE,158,0.0,4.2,53,0.00,,,0.00,WUHU216HW,2013-01-19 06:55:00,
2013-01-19 01:00:00,50.9,34.3,30.21,SSE,158,0.0,2.9,53,0.00,,,0.00,WUHU216HW,2013-01-19 07:00:00,
2013-01-19 01:07:00,50.7,34.6,30.21,South,180,0.0,0.0,54,0.00,,,0.00,WUHU216HW,2013-01-19 07:07:00,
2013-01-19 01:12:00,50.7,34.6,30.20,South,180,0.0,1.7,54,0.00,,,0.00,WUHU216HW,2013-01-19 07:12:00,
2013-01-19 01:17:00,50.7,34.6,30.20,SSE,158,0.0,1.7,54,0.00,,,0.00,WUHU216HW,2013-01-19 07:17:00,
2013-01-19 01:22:00,50.7,34.6,30.21,SSW,203,8.2,10.0,54,0.00,,,0.00,WUHU216HW,2013-01-19 07:22:00,
2013-01-19 01:27:00,50.5,34.4,30.20,South,180,0.0,10.0,54,0.00,,,0.00,WUHU216HW,2013-01-19 07:27:00,
2013-01-19 01:32:00,50.5,34.4,30.21,SSE,158,2.9,8.2,54,0.00,,,0.00,WUHU216HW,2013-01-19 07:32:00,
2013-01-19 01:37:00,50.5,34.4,30.21,SSE,158,1.7,7.1,54,0.00,,,0.00,WUHU216HW,2013-01-19 07:37:00,
2013-01-19 01:42:00,50.3,34.3,30.21,South,180,7.8,7.8,54,0.00,,,0.00,WUHU216HW,2013-01-19 07:42:00,
2013-01-19 01:47:00,50.3,34.3,30.21,SSE,158,0.0,7.8,54,0.00,,,0.00,WUHU216HW,2013-01-19 07:47:00,
2013-01-19 01:53:00,50.1,34.1,30.21,SSE,158,0.0,7.8,54,0.00,,,0.00,WUHU216HW,2013-01-19 07:53:00,
2013-01-19 01:58:00,50.1,34.5,30.21,South,180,0.0,0.0,55,0.00,,,0.00,WUHU216HW,2013-01-19 07:58:00,
2013-01-19 02:07:00,50.1,34.5,30.21,South,180,0.0,0.0,55,0.00,,,0.00,WUHU216HW,2013-01-19 08:07:00,
2013-01-19 02:12:00,50.1,34.5,30.21,South,180,0.0,2.6,55,0.00,,,0.00,WUHU216HW,2013-01-19 08:12:00,
2013-01-19 02:17:00,50.0,34.8,30.20,South,180,0.0,2.6,56,0.00,,,0.00,WUHU216HW,2013-01-19 08:17:00,
2013-01-19 02:22:00,50.1,35.0,30.21,South,180,0.0,0.0,56,0.00,,,0.00,WUHU216HW,2013-01-19 08:22:00,
2013-01-19 02:28:00,50.0,34.8,30.21,South,180,0.0,2.6,56,0.00,,,0.00,WUHU216HW,2013-01-19 08:28:00,
2013-01-19 02:33:00,50.1,35.0,30.20,South,180,0.0,2.6,56,0.00,,,0.00,WUHU216HW,2013-01-19 08:33:00,
2013-01-19 02:38:00,49.8,34.7,30.20,South,180,0.0,4.4,56,0.00,,,0.00,WUHU216HW,2013-01-19 08:38:00,
2013-01-19 02:43:00,49.8,34.7,30.20,SSE,158,0.0,4.4,56,0.00,,,0.00,WUHU216HW,2013-01-19 08:43:00,
2013-01-19 02:48:00,49.6,34.9,30.20,South,180,0.0,0.0,57,0.00,,,0.00,WUHU216HW,2013-01-19 08:48:00,
2013-01-19 02:53:00,49.4,34.8,30.20,South,180,4.6,4.6,57,0.00,,,0.00,WUHU216HW,2013-01-19 08:53:00,
2013-01-19 02:58:00,49.2,34.6,30.20,SSE,158,0.0,4.6,57,0.00,,,0.00,WUHU216HW,2013-01-19 08:58:00,
2013-01-19 03:03:00,49.2,34.6,30.20,SSE,158,4.0,4.0,57,0.00,,,0.00,WUHU216HW,2013-01-19 09:03:00,
2013-01-19 03:08:00,49.2,34.6,30.20,SSW,203,0.0,4.0,57,0.00,,,0.00,WUHU216HW,2013-01-19 09:08:00,
2013-01-19 03:13:00,49.1,34.9,30.20,South,180,0.0,6.9,58,0.00,,,0.00,WUHU216HW,2013-01-19 09:13:00,
2013-01-19 03:18:00,49.1,34.9,30.20,SSE,158,0.0,6.9,58,0.00,,,0.00,WUHU216HW,2013-01-19 09:18:00,
2013-01-19 03:23:00,49.2,35.1,30.20,South,180,0.0,3.5,58,0.00,,,0.00,WUHU216HW,2013-01-19 09:23:00,
2013-01-19 03:28:00,49.2,35.1,30.20,South,180,1.5,1.7,58,0.00,,,0.00,WUHU216HW,2013-01-19 09:28:00,
2013-01-19 03:33:00,49.1,34.9,30.20,South,180,3.8,3.8,58,0.00,,,0.00,WUHU216HW,2013-01-19 09:33:00,
2013-01-19 03:38:00,48.9,34.7,30.20,SSE,158,0.0,3.8,58,0.00,,,0.00,WUHU216HW,2013-01-19 09:38:00,
2013-01-19 03:44:00,48.9,34.7,30.20,South,180,5.3,5.3,58,0.00,,,0.00,WUHU216HW,2013-01-19 09:44:00,
2013-01-19 03:49:00,48.7,35.0,30.19,SSE,158,0.0,5.5,59,0.00,,,0.00,WUHU216HW,2013-01-19 09:49:00,
2013-01-19 03:54:00,48.7,35.0,30.19,SSE,158,0.0,5.5,59,0.00,,,0.00,WUHU216HW,2013-01-19 09:54:00,
2013-01-19 03:59:00,48.7,35.0,30.19,SSE,158,0.0,4.4,59,0.00,,,0.00,WUHU216HW,2013-01-19 09:59:00,
2013-01-19 04:04:00,48.7,35.0,30.19,SSE,158,0.0,2.9,59,0.00,,,0.00,WUHU216HW,2013-01-19 10:04:00,
2013-01-19 04:09:00,48.7,35.0,30.19,SSE,158,0.0,0.0,59,0.00,,,0.00,WUHU216HW,2013-01-19 10:09:00,
2013-01-19 04:14:00,48.7,35.0,30.18,SSW,203,0.0,0.0,59,0.00,,,0.00,WUHU216HW,2013-01-19 10:14:00,
2013-01-19 04:19:00,48.5,34.9,30.19,South,180,0.0,0.0,59,0.00,,,0.00,WUHU216HW,2013-01-19 10:19:00,
2013-01-19 04:24:00,48.3,34.7,30.19,South,180,0.0,0.0,59,0.00,,,0.00,WUHU216HW,2013-01-19 10:24:00,
2013-01-19 04:29:00,48.3,34.7,30.18,South,180,0.0,0.0,59,0.00,,,0.00,WUHU216HW,2013-01-19 10:29:00,
2013-01-19 04:34:00,48.2,35.0,30.19,SSE,158,0.0,0.0,60,0.00,,,0.00,WUHU216HW,2013-01-19 10:34:00,
2013-01-19 04:39:00,48.0,34.8,30.19,SSE,158,0.0,3.3,60,0.00,,,0.00,WUHU216HW,2013-01-19 10:39:00,
2013-01-19 04:44:00,48.0,34.8,30.19,SSE,158,0.0,3.3,60,0.00,,,0.00,WUHU216HW,2013-01-19 10:44:00,
2013-01-19 04:49:00,48.0,34.8,30.19,South,180,1.5,1.5,60,0.00,,,0.00,WUHU216HW,2013-01-19 10:49:00,
2013-01-19 04:54:00,47.6,34.8,30.19,SSE,158,0.0,1.5,61,0.00,,,0.00,WUHU216HW,2013-01-19 10:54:00,
2013-01-19 04:59:00,47.4,34.7,30.19,South,180,0.0,0.0,61,0.00,,,0.00,WUHU216HW,2013-01-19 10:59:00,
2013-01-19 05:04:00,47.4,34.7,30.18,South,180,0.0,0.0,61,0.00,,,0.00,WUHU216HW,2013-01-19 11:04:00,
2013-01-19 05:09:00,47.3,34.9,30.18,SSE,158,0.0,0.0,62,0.00,,,0.00,WUHU216HW,2013-01-19 11:09:00,
2013-01-19 05:15:00,47.1,34.7,30.18,SSE,158,0.0,0.0,62,0.00,,,0.00,WUHU216HW,2013-01-19 11:15:00,
2013-01-19 05:21:00,47.1,34.7,30.18,South,180,0.0,0.0,62,0.00,,,0.00,WUHU216HW,2013-01-19 11:21:00,
2013-01-19 05:27:00,46.9,34.5,30.19,SSE,158,0.0,0.0,62,0.00,,,0.00,WUHU216HW,2013-01-19 11:27:00,
2013-01-19 05:34:00,46.9,34.5,30.18,SSE,158,0.0,0.0,62,0.00,,,0.00,WUHU216HW,2013-01-19 11:34:00,
2013-01-19 05:40:00,46.9,34.9,30.18,SSE,158,0.0,0.0,63,0.00,,,0.00,WUHU216HW,2013-01-19 11:40:00,
2013-01-19 05:46:00,46.9,34.9,30.18,SSE,158,0.0,0.0,63,0.00,,,0.00,WUHU216HW,2013-01-19 11:46:00,
2013-01-19 05:53:00,46.7,34.7,30.18,SSE,158,0.0,0.0,63,0.00,,,0.00,WUHU216HW,2013-01-19 11:53:00,
2013-01-19 05:59:00,46.5,34.6,30.18,SSE,158,0.0,0.0,63,0.00,,,0.00,WUHU216HW,2013-01-19 11:59:00,
2013-01-19 06:05:00,46.5,34.6,30.18,SSE,158,0.0,0.0,63,0.00,,,0.00,WUHU216HW,2013-01-19 12:05:00,
2013-01-19 06:12:00,46.4,34.8,30.18,SSE,158,0.0,0.0,64,0.00,,,0.00,WUHU216HW,2013-01-19 12:12:00,
2013-01-19 06:18:00,46.2,34.6,30.18,SSE,158,0.0,0.0,64,0.00,,,0.00,WUHU216HW,2013-01-19 12:18:00,
2013-01-19 06:24:00,46.2,34.6,30.18,SSE,158,0.0,0.0,64,0.00,,,0.00,WUHU216HW,2013-01-19 12:24:00,
2013-01-19 06:31:00,46.2,35.0,30.18,SSE,158,0.0,0.0,65,0.00,,,0.00,WUHU216HW,2013-01-19 12:31:00,
2013-01-19 06:37:00,46.2,35.0,30.18,SSE,158,0.0,0.0,65,0.00,,,0.00,WUHU216HW,2013-01-19 12:37:00,
2013-01-19 06:47:00,46.7,35.9,30.19,SSE,158,0.0,0.0,66,0.00,,,0.00,WUHU216HW,2013-01-19 12:47:00,
2013-01-19 06:48:00,46.7,35.9,30.18,SSE,158,0.0,0.0,66,0.00,,,0.00,WUHU216HW,2013-01-19 12:48:00,
2013-01-19 06:49:00,48.7,38.2,30.19,SSE,158,0.0,0.0,67,0.00,,,0.00,WUHU216HW,2013-01-19 12:49:00,
2013-01-19 06:54:00,48.3,36.3,30.19,SSE,158,0.0,0.0,63,0.00,,,0.00,WUHU216HW,2013-01-19 12:54:00,
2013-01-19 06:59:00,47.3,35.3,30.19,SSE,158,0.0,0.0,63,0.00,,,0.00,WUHU216HW,2013-01-19 12:59:00,
2013-01-19 07:04:00,46.7,34.7,30.19,SSE,158,0.0,0.0,63,0.00,,,0.00,WUHU216HW,2013-01-19 13:04:00,
2013-01-19 07:09:00,46.2,35.0,30.19,SSE,158,0.0,0.0,65,0.00,,,0.00,WUHU216HW,2013-01-19 13:09:00,
2013-01-19 07:14:00,45.6,34.5,30.19,SSE,158,0.0,0.0,65,0.00,,,0.00,WUHU216HW,2013-01-19 13:14:00,
2013-01-19 07:19:00,45.5,34.7,30.19,SSE,158,0.0,0.0,66,0.00,,,0.00,WUHU216HW,2013-01-19 13:19:00,
2013-01-19 07:24:00,45.3,34.5,30.19,SSE,158,0.0,0.0,66,0.00,,,0.00,WUHU216HW,2013-01-19 13:24:00,
2013-01-19 07:29:00,45.1,34.8,30.19,SSE,158,0.0,0.0,67,0.00,,,0.00,WUHU216HW,2013-01-19 13:29:00,
2013-01-19 07:34:00,45.3,34.9,30.19,SSE,158,0.0,0.0,67,0.00,,,0.00,WUHU216HW,2013-01-19 13:34:00,
2013-01-19 07:40:00,45.1,35.1,30.19,SSE,158,0.0,0.0,68,0.00,,,0.00,WUHU216HW,2013-01-19 13:40:00,
2013-01-19 07:45:00,45.1,35.1,30.18,SSE,158,0.0,0.0,68,0.00,,,0.00,WUHU216HW,2013-01-19 13:45:00,
2013-01-19 07:50:00,45.1,35.1,30.19,SSE,158,0.0,0.0,68,0.00,,,0.00,WUHU216HW,2013-01-19 13:50:00,
2013-01-19 07:55:00,44.9,35.3,30.19,SSE,158,0.0,0.0,69,0.00,,,0.00,WUHU216HW,2013-01-19 13:55:00,
2013-01-19 08:00:00,44.9,35.3,30.19,SSE,158,2.4,2.4,69,0.00,,,0.00,WUHU216HW,2013-01-19 14:00:00,
2013-01-19 08:05:00,44.9,35.7,30.20,SE,135,0.0,2.4,70,0.00,,,0.00,WUHU216HW,2013-01-19 14:05:00,
2013-01-19 08:10:00,45.6,36.5,30.20,SSE,158,0.0,0.0,70,0.00,,,0.00,WUHU216HW,2013-01-19 14:10:00,
2013-01-19 08:15:00,45.5,36.3,30.20,SSE,158,0.0,0.0,70,0.00,,,0.00,WUHU216HW,2013-01-19 14:15:00,
2013-01-19 08:21:00,45.5,36.3,30.20,SSE,158,0.0,0.0,70,0.00,,,0.00,WUHU216HW,2013-01-19 14:21:00,
2013-01-19 08:26:00,45.5,36.6,30.20,SSE,158,6.9,6.9,71,0.00,,,0.00,WUHU216HW,2013-01-19 14:26:00,
2013-01-19 08:31:00,45.6,36.8,30.19,South,180,0.0,6.9,71,0.00,,,0.00,WUHU216HW,2013-01-19 14:31:00,
2013-01-19 08:36:00,45.8,37.0,30.20,SSE,158,3.8,3.8,71,0.00,,,0.00,WUHU216HW,2013-01-19 14:36:00,
2013-01-19 08:41:00,46.0,37.2,30.20,SSE,158,0.0,3.8,71,0.00,,,0.00,WUHU216HW,2013-01-19 14:41:00,
2013-01-19 08:46:00,46.2,37.3,30.20,South,180,3.5,3.8,71,0.00,,,0.00,WUHU216HW,2013-01-19 14:46:00,
2013-01-19 08:51:00,46.2,37.3,30.20,SSE,158,0.0,3.5,71,0.00,,,0.00,WUHU216HW,2013-01-19 14:51:00,
2013-01-19 08:56:00,46.4,37.9,30.20,SSE,158,0.0,3.5,72,0.00,,,0.00,WUHU216HW,2013-01-19 14:56:00,
2013-01-19 09:01:00,46.5,38.0,30.20,SSE,158,0.0,0.0,72,0.00,,,0.00,WUHU216HW,2013-01-19 15:01:00,
2013-01-19 09:06:00,46.7,38.2,30.21,SSE,158,0.0,0.0,72,0.00,,,0.00,WUHU216HW,2013-01-19 15:06:00,
2013-01-19 09:11:00,47.1,38.5,30.21,SSE,158,0.0,0.0,72,0.00,,,0.00,WUHU216HW,2013-01-19 15:11:00,
2013-01-19 09:16:00,47.3,38.3,30.21,SSE,158,0.0,0.0,71,0.00,,,0.00,WUHU216HW,2013-01-19 15:16:00,
2013-01-19 09:21:00,47.3,38.3,30.21,South,180,0.0,0.0,71,0.00,,,0.00,WUHU216HW,2013-01-19 15:21:00,
2013-01-19 09:26:00,47.4,38.8,30.21,South,180,0.0,8.0,72,0.00,,,0.00,WUHU216HW,2013-01-19 15:26:00,
2013-01-19 09:31:00,48.0,39.3,30.21,SSW,203,0.0,8.0,72,0.00,,,0.00,WUHU216HW,2013-01-19 15:31:00,
2013-01-19 09:36:00,48.3,39.3,30.21,South,180,0.0,0.0,71,0.00,,,0.00,WUHU216HW,2013-01-19 15:36:00,
2013-01-19 09:41:00,48.7,39.7,30.21,South,180,0.0,3.3,71,0.00,,,0.00,WUHU216HW,2013-01-19 15:41:00,
2013-01-19 09:47:00,49.2,40.2,30.22,SSE,158,0.0,6.0,71,0.00,,,0.00,WUHU216HW,2013-01-19 15:47:00,
2013-01-19 09:52:00,50.7,41.3,30.21,South,180,0.0,6.0,70,0.00,,,0.00,WUHU216HW,2013-01-19 15:52:00,
2013-01-19 09:57:00,50.9,41.1,30.21,SSW,203,0.0,0.0,69,0.00,,,0.00,WUHU216HW,2013-01-19 15:57:00,
2013-01-19 10:02:00,51.0,41.3,30.21,SSE,158,0.0,0.0,69,0.00,,,0.00,WUHU216HW,2013-01-19 16:02:00,
2013-01-19 10:07:00,51.4,41.2,30.22,South,180,0.0,7.3,68,0.00,,,0.00,WUHU216HW,2013-01-19 16:07:00,
2013-01-19 10:12:00,51.6,41.4,30.22,SSE,158,0.0,7.3,68,0.00,,,0.00,WUHU216HW,2013-01-19 16:12:00,
2013-01-19 10:17:00,52.1,41.5,30.21,South,180,0.0,3.5,67,0.00,,,0.00,WUHU216HW,2013-01-19 16:17:00,
2013-01-19 10:22:00,52.7,42.0,30.22,South,180,0.0,6.4,67,0.00,,,0.00,WUHU216HW,2013-01-19 16:22:00,
2013-01-19 10:27:00,53.2,42.1,30.21,SSW,203,9.6,9.6,66,0.00,,,0.00,WUHU216HW,2013-01-19 16:27:00,
2013-01-19 10:32:00,53.4,42.0,30.21,SSW,203,0.0,9.6,65,0.00,,,0.00,WUHU216HW,2013-01-19 16:32:00,
2013-01-19 10:37:00,53.9,42.4,30.20,WSW,248,0.0,10.7,65,0.00,,,0.00,WUHU216HW,2013-01-19 16:37:00,
2013-01-19 10:43:00,54.3,42.7,30.21,SSW,203,0.0,10.7,65,0.00,,,0.00,WUHU216HW,2013-01-19 16:43:00,
2013-01-19 10:48:00,54.8,43.2,30.20,SSE,158,0.0,8.5,65,0.00,,,0.00,WUHU216HW,2013-01-19 16:48:00,
2013-01-19 10:53:00,55.5,43.1,30.20,SW,225,0.0,9.1,63,0.00,,,0.00,WUHU216HW,2013-01-19 16:53:00,
2013-01-19 10:58:00,56.3,43.4,30.20,South,180,8.5,9.1,62,0.00,,,0.00,WUHU216HW,2013-01-19 16:58:00,
2013-01-19 11:03:00,56.8,43.9,30.20,SSW,203,1.5,8.5,62,0.00,,,0.00,WUHU216HW,2013-01-19 17:03:00,
2013-01-19 11:08:00,56.8,43.5,30.19,South,180,0.0,8.5,61,0.00,,,0.00,WUHU216HW,2013-01-19 17:08:00,
2013-01-19 11:13:00,57.5,44.2,30.19,South,180,7.3,8.2,61,0.00,,,0.00,WUHU216HW,2013-01-19 17:13:00,
2013-01-19 11:19:00,58.1,43.8,30.19,SW,225,0.0,8.2,59,0.00,,,0.00,WUHU216HW,2013-01-19 17:19:00,
2013-01-19 11:25:00,58.8,44.0,30.18,South,180,0.0,8.0,58,0.00,,,0.00,WUHU216HW,2013-01-19 17:25:00,
2013-01-19 11:30:00,58.8,44.0,30.18,SSW,203,7.3,8.0,58,0.00,,,0.00,WUHU216HW,2013-01-19 17:30:00,
2013-01-19 11:35:00,59.3,44.0,30.18,South,180,4.6,7.3,57,0.00,,,0.00,WUHU216HW,2013-01-19 17:35:00,
2013-01-19 11:40:00,60.0,43.8,30.18,SE,135,0.0,4.6,55,0.00,,,0.00,WUHU216HW,2013-01-19 17:40:00,
2013-01-19 11:45:00,60.4,43.6,30.18,SW,225,0.0,6.7,54,0.00,,,0.00,WUHU216HW,2013-01-19 17:45:00,
2013-01-19 11:50:00,60.6,43.8,30.17,South,180,0.0,6.7,54,0.00,,,0.00,WUHU216HW,2013-01-19 17:50:00,
2013-01-19 11:55:00,60.6,43.3,30.17,SSE,158,9.1,9.1,53,0.00,,,0.00,WUHU216HW,2013-01-19 17:55:00,
2013-01-19 12:01:00,61.1,43.3,30.17,SSE,158,0.0,9.3,52,0.00,,,0.00,WUHU216HW,2013-01-19 18:01:00,
2013-01-19 12:06:00,61.5,42.7,30.16,South,180,0.0,9.3,50,0.00,,,0.00,WUHU216HW,2013-01-19 18:06:00,
2013-01-19 12:11:00,61.5,42.7,30.16,SSW,203,5.3,5.3,50,0.00,,,0.00,WUHU216HW,2013-01-19 18:11:00,
2013-01-19 12:17:00,61.7,42.8,30.15,South,180,0.0,5.3,50,0.00,,,0.00,WUHU216HW,2013-01-19 18:17:00,
2013-01-19 12:22:00,61.8,42.4,30.15,SSE,158,0.0,5.3,49,0.00,,,0.00,WUHU216HW,2013-01-19 18:22:00,
2013-01-19 12:28:00,62.4,42.3,30.15,SSW,203,7.1,7.1,48,0.00,,,0.00,WUHU216HW,2013-01-19 18:28:00,
2013-01-19 12:33:00,62.9,42.8,30.14,WSW,248,0.0,7.1,48,0.00,,,0.00,WUHU216HW,2013-01-19 18:33:00,
2013-01-19 12:38:00,63.1,43.0,30.14,SSE,158,0.0,0.0,48,0.00,,,0.00,WUHU216HW,2013-01-19 18:38:00,
2013-01-19 12:43:00,62.9,41.7,30.14,South,180,6.7,6.7,46,0.00,,,0.00,WUHU216HW,2013-01-19 18:43:00,
2013-01-19 12:49:00,63.1,42.4,30.13,SW,225,6.4,6.7,47,0.00,,,0.00,WUHU216HW,2013-01-19 18:49:00,
2013-01-19 12:54:00,63.5,42.7,30.13,South,180,3.1,6.7,47,0.00,,,0.00,WUHU216HW,2013-01-19 18:54:00,
2013-01-19 12:59:00,64.2,42.8,30.13,South,180,4.2,4.2,29,0.00,,,0.00,WUHU216HW,2013-01-19 18:59:00,
2013-01-19 13:04:00,64.2,42.8,30.13,West,270,0.0,4.2,46,0.00,,,0.00,WUHU216HW,2013-01-19 19:04:00,
2013-01-19 13:09:00,64.2,42.8,30.12,SW,225,0.0,0.0,46,0.00,,,0.00,WUHU216HW,2013-01-19 19:09:00,
2013-01-19 13:15:00,64.7,42.7,30.12,SW,225,6.0,6.0,45,0.00,,,0.00,WUHU216HW,2013-01-19 19:15:00,
2013-01-19 13:20:00,65.3,42.7,30.12,SSW,203,0.0,6.0,44,0.00,,,0.00,WUHU216HW,2013-01-19 19:20:00,
2013-01-19 13:25:00,65.6,43.0,30.11,SSW,203,0.0,3.8,44,0.00,,,0.00,WUHU216HW,2013-01-19 19:25:00,
2013-01-19 13:30:00,65.6,43.0,30.11,SW,225,4.6,4.6,44,0.00,,,0.00,WUHU216HW,2013-01-19 19:30:00,
2013-01-19 13:36:00,65.3,42.7,30.10,South,180,1.7,4.6,44,0.00,,,0.00,WUHU216HW,2013-01-19 19:36:00,
2013-01-19 13:43:00,65.4,43.4,30.10,SSW,203,0.0,4.6,45,0.00,,,0.00,WUHU216HW,2013-01-19 19:43:00,
2013-01-19 13:48:00,66.3,43.7,30.10,SSE,158,0.0,0.0,44,0.00,,,0.00,WUHU216HW,2013-01-19 19:48:00,
2013-01-19 13:53:00,66.9,44.2,30.10,SSE,158,0.0,7.1,44,0.00,,,0.00,WUHU216HW,2013-01-19 19:53:00,
2013-01-19 13:58:00,66.7,44.0,30.09,South,180,4.0,7.1,44,0.00,,,0.00,WUHU216HW,2013-01-19 19:58:00,
2013-01-19 14:04:00,66.3,43.7,30.10,SE,135,3.1,4.0,44,0.00,,,0.00,WUHU216HW,2013-01-19 20:04:00,
2013-01-19 14:09:00,66.3,43.7,30.10,South,180,0.0,4.0,44,0.00,,,0.00,WUHU216HW,2013-01-19 20:09:00,
2013-01-19 14:15:00,66.9,44.2,30.09,SW,225,0.0,4.0,44,0.00,,,0.00,WUHU216HW,2013-01-19 20:15:00,
2013-01-19 14:20:00,67.2,43.9,30.09,SSE,158,0.0,1.5,43,0.00,,,0.00,WUHU216HW,2013-01-19 20:20:00,
2013-01-19 14:25:00,67.2,43.3,30.09,South,180,2.0,2.9,42,0.00,,,0.00,WUHU216HW,2013-01-19 20:25:00,
2013-01-19 14:30:00,66.9,43.6,30.09,SSW,203,0.0,2.9,43,0.00,,,0.00,WUHU216HW,2013-01-19 20:30:00,
2013-01-19 14:35:00,67.2,43.3,30.09,SSE,158,7.1,7.1,42,0.00,,,0.00,WUHU216HW,2013-01-19 20:35:00,
2013-01-19 14:40:00,67.2,43.3,30.09,SSW,203,0.0,7.1,42,0.00,,,0.00,WUHU216HW,2013-01-19 20:40:00,
2013-01-19 14:45:00,67.6,43.6,30.08,SSE,158,0.0,8.9,42,0.00,,,0.00,WUHU216HW,2013-01-19 20:45:00,
2013-01-19 14:51:00,67.8,43.8,30.08,SE,135,0.0,8.9,42,0.00,,,0.00,WUHU216HW,2013-01-19 20:51:00,
2013-01-19 14:56:00,67.8,43.8,30.09,South,180,0.0,6.7,42,0.00,,,0.00,WUHU216HW,2013-01-19 20:56:00,
2013-01-19 15:01:00,67.8,43.8,30.09,South,180,6.7,6.7,42,0.00,,,0.00,WUHU216HW,2013-01-19 21:01:00,
2013-01-19 15:06:00,67.8,43.8,30.09,WSW,248,0.0,6.7,42,0.00,,,0.00,WUHU216HW,2013-01-19 21:06:00,
2013-01-19 15:12:00,68.3,44.3,30.09,SSE,158,0.0,6.7,42,0.00,,,0.00,WUHU216HW,2013-01-19 21:12:00,
2013-01-19 15:17:00,68.0,43.9,30.09,SSE,158,4.9,4.9,42,0.00,,,0.00,WUHU216HW,2013-01-19 21:17:00,
2013-01-19 15:22:00,67.8,44.4,30.09,South,180,7.8,7.8,43,0.00,,,0.00,WUHU216HW,2013-01-19 21:22:00,
2013-01-19 15:27:00,67.8,44.4,30.09,SSE,158,0.0,7.8,43,0.00,,,0.00,WUHU216HW,2013-01-19 21:27:00,
2013-01-19 15:33:00,68.7,45.2,30.09,SE,135,0.0,7.8,43,0.00,,,0.00,WUHU216HW,2013-01-19 21:33:00,
2013-01-19 15:39:00,68.7,45.2,30.09,SE,135,8.2,8.2,43,0.00,,,0.00,WUHU216HW,2013-01-19 21:39:00,
2013-01-19 15:45:00,67.8,44.4,30.08,SSE,158,7.1,8.2,43,0.00,,,0.00,WUHU216HW,2013-01-19 21:45:00,
2013-01-19 15:50:00,67.2,44.5,30.09,SE,135,2.6,8.2,44,0.00,,,0.00,WUHU216HW,2013-01-19 21:50:00,
2013-01-19 15:55:00,66.7,44.0,30.09,SSE,158,0.0,5.3,44,0.00,,,0.00,WUHU216HW,2013-01-19 21:55:00,
2013-01-19 16:00:00,66.0,43.9,30.09,South,180,0.0,7.3,45,0.00,,,0.00,WUHU216HW,2013-01-19 22:00:00,
2013-01-19 16:05:00,66.0,43.9,30.09,SSE,158,5.1,7.3,45,0.00,,,0.00,WUHU216HW,2013-01-19 22:05:00,
2013-01-19 16:10:00,65.8,43.8,30.09,SSE,158,7.6,8.0,45,0.00,,,0.00,WUHU216HW,2013-01-19 22:10:00,
2013-01-19 16:15:00,65.6,44.2,30.10,South,180,0.0,8.0,46,0.00,,,0.00,WUHU216HW,2013-01-19 22:15:00,
2013-01-19 16:21:00,65.6,44.2,30.10,South,180,8.0,8.0,46,0.00,,,0.00,WUHU216HW,2013-01-19 22:21:00,
2013-01-19 16:27:00,65.4,44.6,30.10,SSE,158,0.0,8.0,47,0.00,,,0.00,WUHU216HW,2013-01-19 22:27:00,
2013-01-19 16:32:00,65.1,44.2,30.10,South,180,2.9,2.9,47,0.00,,,0.00,WUHU216HW,2013-01-19 22:32:00,
2013-01-19 16:37:00,65.1,44.8,30.10,SE,135,7.3,7.3,48,0.00,,,0.00,WUHU216HW,2013-01-19 22:37:00,
2013-01-19 16:42:00,64.9,44.6,30.10,SSE,158,0.0,7.3,48,0.00,,,0.00,WUHU216HW,2013-01-19 22:42:00,
2013-01-19 16:47:00,64.9,45.2,30.10,SE,135,6.0,7.8,49,0.00,,,0.00,WUHU216HW,2013-01-19 22:47:00,
2013-01-19 16:53:00,64.7,45.0,30.10,SSE,158,0.0,7.8,49,0.00,,,0.00,WUHU216HW,2013-01-19 22:53:00,
2013-01-19 16:58:00,64.2,45.1,30.10,South,180,3.3,3.3,50,0.00,,,0.00,WUHU216HW,2013-01-19 22:58:00,
2013-01-19 17:03:00,64.2,45.1,30.10,SE,135,3.5,3.5,50,0.00,,,0.00,WUHU216HW,2013-01-19 23:03:00,
2013-01-19 17:08:00,64.0,44.9,30.10,SSE,158,0.0,9.6,50,0.00,,,0.00,WUHU216HW,2013-01-19 23:08:00,
2013-01-19 17:14:00,64.0,44.9,30.10,SSE,158,0.0,9.6,50,0.00,,,0.00,WUHU216HW,2013-01-19 23:14:00,
2013-01-19 17:19:00,63.8,45.3,30.10,East,90,0.0,0.0,51,0.00,,,0.00,WUHU216HW,2013-01-19 23:19:00,
2013-01-19 17:24:00,63.5,45.1,30.10,SSE,158,0.0,0.0,51,0.00,,,0.00,WUHU216HW,2013-01-19 23:24:00,
2013-01-19 17:29:00,63.5,44.9,30.10,South,180,0.0,0.0,51,0.00,,,0.00,WUHU216HW,2013-01-19 23:29:00,
2013-01-19 17:34:00,63.3,44.8,30.10,SSE,158,0.0,0.0,51,0.00,,,0.00,WUHU216HW,2013-01-19 23:34:00,
2013-01-19 17:39:00,63.1,44.6,30.10,SSE,158,0.0,8.2,51,0.00,,,0.00,WUHU216HW,2013-01-19 23:39:00,
2013-01-19 17:44:00,62.9,44.9,30.10,South,180,1.5,8.2,52,0.00,,,0.00,WUHU216HW,2013-01-19 23:44:00,
2013-01-19 17:50:00,62.4,44.5,30.10,South,180,0.4,1.5,52,0.00,,,0.00,WUHU216HW,2013-01-19 23:50:00,
2013-01-19 17:55:00,62.2,44.8,30.09,South,180,4.9,4.9,53,0.00,,,0.00,WUHU216HW,2013-01-19 23:55:00,
2013-01-19 18:00:00,61.7,44.3,30.10,South,180,0.0,4.9,53,0.00,,,0.00,WUHU216HW,2013-01-20 00:00:00,
2013-01-19 18:05:00,61.7,44.8,30.10,South,180,0.0,4.9,54,0.00,,,0.00,WUHU216HW,2013-01-20 00:05:00,
2013-01-19 18:11:00,61.5,44.6,30.10,South,180,0.0,0.0,54,0.00,,,0.00,WUHU216HW,2013-01-20 00:11:00,
2013-01-19 18:16:00,61.1,44.8,30.10,SSE,158,0.0,0.0,55,0.00,,,0.00,WUHU216HW,2013-01-20 00:16:00,
2013-01-19 18:21:00,60.9,44.6,30.10,SSW,203,0.0,0.0,55,0.00,,,0.00,WUHU216HW,2013-01-20 00:21:00,
2013-01-19 18:27:00,60.9,44.6,30.11,South,180,0.0,1.5,55,0.00,,,0.00,WUHU216HW,2013-01-20 00:27:00,
2013-01-19 18:32:00,60.9,44.6,30.11,South,180,0.0,1.5,55,0.00,,,0.00,WUHU216HW,2013-01-20 00:32:00,
2013-01-19 18:38:00,60.8,44.5,30.11,South,180,0.0,0.0,55,0.00,,,0.00,WUHU216HW,2013-01-20 00:38:00,
2013-01-19 18:43:00,60.6,44.8,30.12,SE,135,0.0,0.0,56,0.00,,,0.00,WUHU216HW,2013-01-20 00:43:00,
2013-01-19 18:48:00,60.4,44.6,30.12,SSE,158,0.0,0.0,56,0.00,,,0.00,WUHU216HW,2013-01-20 00:48:00,
2013-01-19 18:53:00,60.2,44.4,30.11,SSE,158,0.0,0.0,56,0.00,,,0.00,WUHU216HW,2013-01-20 00:53:00,
2013-01-19 18:58:00,60.0,44.7,30.12,SSE,158,0.0,0.0,57,0.00,,,0.00,WUHU216HW,2013-01-20 00:58:00,
2013-01-19 19:04:00,59.9,44.6,30.12,SSE,158,0.0,0.0,57,0.00,,,0.00,WUHU216HW,2013-01-20 01:04:00,
2013-01-19 19:09:00,59.7,44.4,30.13,SSE,158,0.0,0.0,57,0.00,,,0.00,WUHU216HW,2013-01-20 01:09:00,
2013-01-19 19:15:00,59.7,44.4,30.13,SSE,158,0.0,0.0,57,0.00,,,0.00,WUHU216HW,2013-01-20 01:15:00,
2013-01-19 19:21:00,59.5,44.7,30.13,SSE,158,0.0,0.0,58,0.00,,,0.00,WUHU216HW,2013-01-20 01:21:00,
2013-01-19 19:26:00,59.3,44.5,30.13,SSE,158,0.0,0.0,58,0.00,,,0.00,WUHU216HW,2013-01-20 01:26:00,
2013-01-19 19:31:00,58.8,44.0,30.13,SSE,158,0.0,0.0,58,0.00,,,0.00,WUHU216HW,2013-01-20 01:31:00,
2013-01-19 19:37:00,58.8,44.0,30.13,SSE,158,0.0,0.0,58,0.00,,,0.00,WUHU216HW,2013-01-20 01:37:00,
2013-01-19 19:42:00,58.8,44.0,30.13,SSE,158,0.0,0.0,58,0.00,,,0.00,WUHU216HW,2013-01-20 01:42:00,
2013-01-19 19:47:00,58.8,44.5,30.13,SSE,158,0.0,0.0,59,0.00,,,0.00,WUHU216HW,2013-01-20 01:47:00,
2013-01-19 19:52:00,58.8,44.5,30.14,SSE,158,0.0,0.0,59,0.00,,,0.00,WUHU216HW,2013-01-20 01:52:00,
2013-01-19 19:57:00,58.6,44.3,30.14,SSE,158,0.0,0.0,59,0.00,,,0.00,WUHU216HW,2013-01-20 01:57:00,
2013-01-19 20:03:00,58.2,44.0,30.14,SSE,158,0.0,0.0,59,0.00,,,0.00,WUHU216HW,2013-01-20 02:03:00,
2013-01-19 20:08:00,58.2,44.0,30.14,SSE,158,0.0,0.0,59,0.00,,,0.00,WUHU216HW,2013-01-20 02:08:00,
2013-01-19 20:13:00,58.2,44.4,30.14,SSE,158,0.0,0.0,60,0.00,,,0.00,WUHU216HW,2013-01-20 02:13:00,
2013-01-19 20:18:00,58.1,44.3,30.14,SSE,158,0.0,0.0,60,0.00,,,0.00,WUHU216HW,2013-01-20 02:18:00,
2013-01-19 20:23:00,58.1,44.3,30.14,SSE,158,0.0,0.0,60,0.00,,,0.00,WUHU216HW,2013-01-20 02:23:00,
2013-01-19 20:28:00,57.9,44.1,30.15,SSE,158,0.0,0.0,60,0.00,,,0.00,WUHU216HW,2013-01-20 02:28:00,
2013-01-19 20:33:00,57.9,44.1,30.15,SSE,158,0.0,0.0,60,0.00,,,0.00,WUHU216HW,2013-01-20 02:33:00,
2013-01-19 20:38:00,57.9,44.5,30.15,SSE,158,0.0,0.0,61,0.00,,,0.00,WUHU216HW,2013-01-20 02:38:00,
2013-01-19 20:43:00,57.5,44.2,30.15,SSE,158,0.0,0.0,61,0.00,,,0.00,WUHU216HW,2013-01-20 02:43:00,
2013-01-19 20:48:00,57.3,44.0,30.14,SSE,158,0.0,0.0,61,0.00,,,0.00,WUHU216HW,2013-01-20 02:48:00,
2013-01-19 20:53:00,57.3,44.0,30.14,SSE,158,0.0,0.0,61,0.00,,,0.00,WUHU216HW,2013-01-20 02:53:00,
2013-01-19 20:58:00,57.0,43.7,30.14,SSE,158,0.0,0.0,61,0.00,,,0.00,WUHU216HW,2013-01-20 02:58:00,
2013-01-19 21:04:00,57.0,44.1,30.14,SSE,158,0.0,0.0,62,0.00,,,0.00,WUHU216HW,2013-01-20 03:04:00,
2013-01-19 21:10:00,56.8,43.9,30.15,SSE,158,0.0,0.0,62,0.00,,,0.00,WUHU216HW,2013-01-20 03:10:00,
2013-01-19 21:15:00,56.6,43.7,30.15,SSE,158,0.0,0.0,62,0.00,,,0.00,WUHU216HW,2013-01-20 03:15:00,
2013-01-19 21:20:00,56.4,43.5,30.15,SSE,158,0.0,0.0,62,0.00,,,0.00,WUHU216HW,2013-01-20 03:20:00,
2013-01-19 21:25:00,56.4,43.5,30.15,SSE,158,0.0,0.0,62,0.00,,,0.00,WUHU216HW,2013-01-20 03:25:00,
2013-01-19 21:30:00,56.1,43.2,30.15,SSE,158,0.0,0.0,62,0.00,,,0.00,WUHU216HW,2013-01-20 03:30:00,
2013-01-19 21:36:00,55.9,43.0,30.15,SSE,158,0.0,0.0,62,0.00,,,0.00,WUHU216HW,2013-01-20 03:36:00,
2013-01-19 21:41:00,55.7,43.3,30.15,SSE,158,0.0,0.0,63,0.00,,,0.00,WUHU216HW,2013-01-20 03:41:00,
2013-01-19 21:46:00,55.7,43.3,30.16,SSE,158,0.0,0.0,63,0.00,,,0.00,WUHU216HW,2013-01-20 03:46:00,
2013-01-19 21:52:00,55.5,43.1,30.15,SSE,158,0.0,0.0,63,0.00,,,0.00,WUHU216HW,2013-01-20 03:52:00,
2013-01-19 21:57:00,55.4,42.9,30.16,SSE,158,0.0,0.0,63,0.00,,,0.00,WUHU216HW,2013-01-20 03:57:00,
2013-01-19 22:02:00,55.2,43.1,30.16,SSE,158,0.0,0.0,64,0.00,,,0.00,WUHU216HW,2013-01-20 04:02:00,
2013-01-19 22:08:00,55.2,43.1,30.16,SSE,158,0.0,0.0,64,0.00,,,0.00,WUHU216HW,2013-01-20 04:08:00,
2013-01-19 22:13:00,55.0,43.0,30.15,SSE,158,0.0,0.0,64,0.00,,,0.00,WUHU216HW,2013-01-20 04:13:00,
2013-01-19 22:18:00,55.0,43.0,30.16,SSE,158,0.0,0.0,64,0.00,,,0.00,WUHU216HW,2013-01-20 04:18:00,
2013-01-19 22:24:00,54.8,43.2,30.15,SSE,158,0.0,0.0,65,0.00,,,0.00,WUHU216HW,2013-01-20 04:24:00,
2013-01-19 22:29:00,55.0,43.4,30.16,South,180,0.0,0.0,65,0.00,,,0.00,WUHU216HW,2013-01-20 04:29:00,
2013-01-19 22:34:00,55.2,43.6,30.16,South,180,0.0,0.0,65,0.00,,,0.00,WUHU216HW,2013-01-20 04:34:00,
2013-01-19 22:39:00,55.0,43.4,30.16,South,180,0.0,0.0,65,0.00,,,0.00,WUHU216HW,2013-01-20 04:39:00,
2013-01-19 22:44:00,54.8,43.4,30.16,South,180,0.0,0.0,65,0.00,,,0.00,WUHU216HW,2013-01-20 04:44:00,
2013-01-19 22:49:00,54.6,43.1,30.16,South,180,0.0,0.0,65,0.00,,,0.00,WUHU216HW,2013-01-20 04:49:00,
2013-01-19 22:55:00,54.6,43.1,30.16,South,180,0.0,0.0,65,0.00,,,0.00,WUHU216HW,2013-01-20 04:55:00,
2013-01-19 23:00:00,54.3,42.7,30.16,South,180,0.0,0.0,65,0.00,,,0.00,WUHU216HW,2013-01-20 05:00:00,
2013-01-19 23:02:00,54.3,42.7,30.16,South,180,0.0,0.0,65,0.00,,,0.00,WUHU216HW,2013-01-20 05:02:00,
2013-01-19 23:03:00,54.3,42.7,30.16,South,180,0.0,0.0,65,0.00,,,0.00,WUHU216HW,2013-01-20 05:03:00,
2013-01-19 23:08:00,54.3,43.1,30.16,South,180,0.0,0.0,66,0.00,,,0.00,WUHU216HW,2013-01-20 05:08:00,
2013-01-19 23:13:00,54.3,43.1,30.16,South,180,0.0,0.0,66,0.00,,,0.00,WUHU216HW,2013-01-20 05:13:00,
2013-01-19 23:18:00,54.1,42.5,30.16,South,180,0.0,0.0,65,0.00,,,0.00,WUHU216HW,2013-01-20 05:18:00,
2013-01-19 23:23:00,54.1,42.9,30.17,South,180,0.0,0.0,66,0.00,,,0.00,WUHU216HW,2013-01-20 05:23:00,
2013-01-19 23:28:00,54.1,42.9,30.17,South,180,0.0,0.0,66,0.00,,,0.00,WUHU216HW,2013-01-20 05:28:00,
2013-01-19 23:33:00,53.9,42.8,30.17,South,180,0.0,0.0,66,0.00,,,0.00,WUHU216HW,2013-01-20 05:33:00,
2013-01-19 23:38:00,53.4,42.2,30.17,South,180,0.0,0.0,66,0.00,,,0.00,WUHU216HW,2013-01-20 05:38:00,
2013-01-19 23:43:00,53.2,42.1,30.17,South,180,0.0,0.0,66,0.00,,,0.00,WUHU216HW,2013-01-20 05:43:00,
2013-01-19 23:49:00,53.2,42.1,30.17,South,180,0.0,0.0,66,0.00,,,0.00,WUHU216HW,2013-01-20 05:49:00,
2013-01-19 23:54:00,52.8,41.7,30.16,South,180,0.0,0.0,66,0.00,,,0.00,WUHU216HW,2013-01-20 05:54:00,
2013-01-19 23:59:00,52.7,41.6,30.16,South,180,0.0,0.0,66,0.00,,,0.00,WUHU216HW,2013-01-20 05:59:00,